Tracking 31027 objects as of 18-Jul-2025
HD Live streaming from Space Station
objects crossing your sky now

BEIDOU G6

Track BEIDOU G6 now!
BEIDOU G6 is classified as:


NORAD ID: 38953
Int'l Code: 2012-059A
Perigee: 35,758.0 km
Apogee: 35,828.3 km
Inclination: 3.6 °
Period: 1,436.1 minutes
Semi major axis: 42164 km
RCS: 8.3985 m2 (large)
Launch date: October 25, 2012
Source: People's Republic of China (PRC)
Launch site: Xichang Space Center, China (XSC)

BEIDOU G6 it the 16th satellite part of China's Beidou navigation system.
Your satellite tracking list
GALAXY 10R
Track 1 satellite(s)




NASA's NSSDC Master Catalog

Two Line Element Set (TLE):
1 38953U 12059A   25199.63132119 -.00000172  00000-0  00000-0 0  9998
2 38953   3.5704  77.0323 0008340 320.5911 210.2991  1.00273858 46566
Source of the keplerian elements: AFSPC